Home   Weather   New York   Past weeks

Flag for USA Past Weather in New York, New York, USA — Yesterday and Last 2 Weeks

Now
72 °F

Passing clouds.


Feels Like: 76 °F
Forecast: 71 / 84 °F
Wind: 7 mph from East

Location: New York City - Central Park

Current Time: Aug 30, 2016 at 5:20:51 AM

Latest Report: Aug 30, 2016 at 4:51 AM


Visibility: 10 mi

Pressure: 30.15 "Hg

Humidity: 57%

Dew Point: 56 °F

Location of New YorkLocation

Past Weather in New York — Graph

°F

New York Temperature Yesterday

Maximum temperature yesterday: 90 °F (at 1:51 PM)
Minimum temperature yesterday: 74 °F (at 5:51 AM)
Average temperature yesterday: 81 °F

High & Low Weather Summary for the Past Weeks

 TemperatureHumidityPressure
High91 °F (Aug 15, 1:51 PM)94% (Aug 16, 9:03 PM)30.32 "Hg (Aug 16, 9:03 PM)
Low62 °F (Aug 23, 4:51 AM)33% (Aug 24, 2:51 PM)29.76 "Hg (Aug 21, 7:51 PM)
Average79 °F63%30.06 "Hg
* Reported Aug 15 3:51 AM — Aug 30 3:51 AM, New York, Weather by CustomWeather, © 2016

Note: Actual official high and low records may vary slightly from our data, if they occured in-between our weather recording intervals... More about our weather records

Advertising

New York Weather History for the Previous 24 Hours

Scroll right to see more
 ConditionsComfort  
Time TempWeatherWind HumidityBarometerVisibility
3:51 AM
Tue, Aug 30
72 °FPassing clouds.3 mph57%30.14 "Hg10 mi
2:51 AM74 °FClear.8 mph52%30.14 "Hg10 mi
1:51 AM75 °FClear.8 mph50%30.14 "Hg10 mi
12:51 AM76 °FClear.3 mph48%30.14 "Hg10 mi
11:51 PM
Mon, Aug 29
78 °FClear.6 mph45%30.13 "Hg10 mi
10:51 PM79 °FClear.10 mph44%30.13 "Hg10 mi
9:51 PM80 °FClear.8 mph45%30.12 "Hg10 mi
8:51 PM81 °FClear.5 mph45%30.11 "Hg10 mi
7:51 PM84 °FSunny.3 mph40%30.09 "Hg10 mi
6:51 PM86 °FSunny.6 mph37%30.07 "Hg10 mi
5:51 PM88 °FSunny.6 mph35%30.06 "Hg10 mi
4:51 PM88 °FSunny.5 mph38%30.06 "Hg10 mi
3:51 PM90 °FSunny.7 mph33%30.06 "HgN/A
2:51 PM89 °FSunny.6 mph36%30.08 "HgN/A
1:51 PM90 °FSunny.7 mph34%30.08 "Hg9 mi
12:51 PM89 °FSunny.8 mph42%30.09 "Hg9 mi
11:51 AM88 °FSunny.3 mph46%30.10 "Hg8 mi
10:51 AM85 °FSunny.6 mph55%30.11 "Hg8 mi
9:51 AM79 °FPassing clouds.5 mph65%30.11 "Hg8 mi
8:51 AM77 °FSunny.5 mph64%30.11 "Hg8 mi
7:51 AM75 °FSunny.5 mph69%30.12 "Hg8 mi
6:51 AM74 °FClear.5 mph71%30.11 "Hg9 mi
5:51 AM74 °FPassing clouds.3 mph74%30.11 "Hg10 mi
Weather by CustomWeather, © 2016

See weather overviewHow to use our weather pages